Terminal Aerodrome Forecast
Issued by NWS

Home | Current Version | Previous Version | Text Only | Print | Product List | Glossary On
Versions: 1 2 3 4 5 6 7 8 9 10 11 12 13 14 15 16 17 18 19
000
FTUS43 KAPX 270135 AAA
TAFTVC
TAF AMD
KTVC 270135Z 2702/2724 33011G20KT 6SM -SHSN SCT018 OVC025
      TEMPO 2702/2704 3SM -SHSN BKN018
     FM271400 35011G20KT P6SM SCT040=

USA.gov is the U.S. government's official web portal to all federal, state and local government web resources and services.